Weather History for KJBR - May, 2013

Change the Weather History Date:

Tuesday, May 28, 2013

  Actual Average Record
Temperature  
Mean Temperature 79 °F 73 °F  
Max Temperature 88 °F 84 °F 101 °F (1911)
Min Temperature 69 °F 62 °F 40 °F (1907)
Degree Days  
Heating Degree Days 0 0  
Month to date heating degree days 71 35  
Since 1 July heating degree days 3556 3650  
Cooling Degree Days 14 8  
Month to date cooling degree days 139 139  
Year to date cooling degree days 188 186  
Growing Degree Days 30 (Base 50)    
Moisture  
Dew Point 64 °F    
Average Humidity 65    
Maximum Humidity 84    
Minimum Humidity 46    
Precipitation  
Precipitation 0.00 in 0.10 in 2.03 in (1976)
Month to date precipitation 7.34 4.34  
Year to date precipitation 23.87 21.01  
Snow  
Snow 0.00 in 0.00 in - ()
Month to date snowfall 0.0 0.0  
Since 1 July snowfall 11.0 4.8  
Snow Depth 0.00 in    
Sea Level Pressure  
Sea Level Pressure 29.95 in    
Wind  
Wind Speed 13 mph (South)    
Max Wind Speed 24 mph    
Max Gust Speed 32 mph    
Visibility 10 miles    
Events      
T = Trace of Precipitation, MM = Missing Value Source: NWS Daily Summary

Daily Weather History Graph

Daily Weather History Graph

Search for Another Location

Airport or City:

Trip Planner

Search our weather history database for the weather conditions in past years. The results will help you decide how hot, cold, wet, or windy it might be!

Date:

Astronomy

May. 28, 2013 Rise Set
Actual Time 5:49 AM CDT 8:11 PM CDT
Civil Twilight 5:19 AM CDT 8:40 PM CDT
Nautical Twilight 4:43 AM CDT 9:16 PM CDT
Astronomical Twilight 4:03 AM CDT 9:56 PM CDT
Moon 11:39 PM CDT 9:34 AM CDT
Length of Visible Light 15h 20m
Length of Day
14h 22m
Waning Gibbous, 82% of the Moon is Illuminated
May 28
Waning Gibbous
May 31
Last Quarter
Jun 8
New
Jun 16
First Quarter
Jun 23
Full

Hourly Weather History & Observations

Time (CDT) Temp. Heat Index Dew Point Humidity Pressure Visibility Wind Dir Wind Speed Gust Speed Precip Events Conditions
12:53 AM 73.0 °F - 61.0 °F 66% 29.91 in 10.0 mi South 8.1 mph - N/A   Clear
1:53 AM 72.0 °F - 62.1 °F 71% 29.91 in 10.0 mi South 6.9 mph - N/A   Clear
2:53 AM 73.0 °F - 63.0 °F 71% 29.91 in 10.0 mi South 8.1 mph - N/A   Clear
3:53 AM 72.0 °F - 64.0 °F 76% 29.90 in 10.0 mi South 10.4 mph - N/A   Clear
4:53 AM 71.1 °F - 63.0 °F 75% 29.92 in 10.0 mi South 9.2 mph - N/A   Clear
5:51 AM 71.6 °F - 64.4 °F 78% 29.95 in 10.0 mi South 9.2 mph - N/A   Partly Cloudy
5:53 AM 71.1 °F - 64.0 °F 78% 29.94 in 10.0 mi South 9.2 mph - N/A   Partly Cloudy
6:53 AM 72.0 °F - 66.0 °F 81% 29.96 in 10.0 mi South 10.4 mph - N/A   Clear
7:31 AM 75.2 °F - 68.0 °F 78% 29.99 in 10.0 mi SSW 17.3 mph - N/A   Mostly Cloudy
7:53 AM 75.0 °F - 68.0 °F 79% 29.99 in 10.0 mi SSW 17.3 mph 24.2 mph N/A   Overcast
8:53 AM 77.0 °F - 68.0 °F 74% 30.01 in 10.0 mi SSW 13.8 mph 23.0 mph N/A   Mostly Cloudy
9:12 AM 78.8 °F - 68.0 °F 69% 30.02 in 10.0 mi SSW 18.4 mph 28.8 mph N/A   Mostly Cloudy
9:53 AM 81.0 °F 83.8 °F 68.0 °F 65% 29.99 in 10.0 mi SSW 19.6 mph 29.9 mph N/A   Partly Cloudy
10:53 AM 82.0 °F 84.1 °F 66.0 °F 58% 29.98 in 10.0 mi SSW 23.0 mph 28.8 mph N/A   Partly Cloudy
11:53 AM 82.9 °F 85.0 °F 66.0 °F 56% 29.99 in 10.0 mi SW 15.0 mph 23.0 mph N/A   Partly Cloudy
12:53 PM 84.9 °F 86.6 °F 64.9 °F 51% 29.97 in 10.0 mi SSW 13.8 mph 25.3 mph N/A   Clear
1:53 PM 87.1 °F 88.3 °F 64.0 °F 46% 29.96 in 10.0 mi SSW 15.0 mph 23.0 mph N/A   Clear
2:53 PM 87.1 °F 88.9 °F 64.9 °F 48% 29.96 in 10.0 mi South 16.1 mph 24.2 mph N/A   Mostly Cloudy
3:53 PM 88.0 °F 89.3 °F 64.0 °F 45% 29.93 in 10.0 mi South 16.1 mph 23.0 mph N/A   Clear
5:53 PM 86.0 °F 88.2 °F 66.0 °F 51% 29.91 in 10.0 mi SSW 15.0 mph - N/A   Clear
6:53 PM 84.9 °F 87.1 °F 66.0 °F 53% 29.91 in 10.0 mi SSW 16.1 mph 21.9 mph N/A   Clear
8:53 PM 81.0 °F 81.3 °F 59.0 °F 47% 29.91 in 10.0 mi South 12.7 mph - N/A   Clear
9:53 PM 78.1 °F - 60.1 °F 54% 29.92 in 10.0 mi South 12.7 mph - N/A   Clear
10:53 PM 75.0 °F - 60.1 °F 60% 29.94 in 10.0 mi South 6.9 mph - N/A   Clear
11:53 PM 73.9 °F - 60.1 °F 62% 29.95 in 10.0 mi South 3.5 mph - N/A   Clear